Weather Roundup
Issued by NWS

Home | Current Version | Previous Version | Text Only | Print | Product List | Glossary On
Versions: 1 2 3 4 5 6 7 8 9 10 11 12 13 14 15 16 17 18 19 20 21 22 23 24 25 26 27 28 29 30 31 32 33 34 35 36 37 38 39 40 41 42 43 44 45 46 47 48 49 50
000
NZUS93 KARX 160310
HRRWXR

CURRENT HOURLY OBSERVATIONS ACROSS
MUCH OF THE UPPER MISSISSIPPI VALLEY
NATIONAL WEATHER SERVICE LA CROSSE WI
1000 PM CDT MON SEP 15 2014


...SOUTHEAST MINNESOTA...


CITY           SKY/WX    TMP DP  RH WIND       PRES   REMARKS
ROCHESTER      CLEAR     45  40  82 W7        30.24R
ROCHESTER/MAYO FAIR      51  41  68 CALM      30.24R
WINONA         CLEAR     48  46  93 CALM      30.23R
AUSTIN         CLEAR     45  43  93 CALM      30.23S
ALBERT LEA     CLEAR     45  43  93 CALM      30.24S
DODGE CENTER   CLEAR     45  41  87 W3        30.23S
PRESTON        CLEAR     46  44  91 NW5       30.23S
OWATONNA       CLEAR     43  41  93 CALM      30.23S
FARIBAULT      CLEAR     45  39  81 CALM      30.23S
$$

...ELSEWHERE IN MINNESOTA...


CITY           SKY/WX    TMP DP  RH WIND       PRES   REMARKS
MINNEAPOLIS    CLEAR     51  39  63 NW3       30.22R
INTNL FALLS    MOCLDY    36  35  96 S3        30.07F
DULUTH         CLEAR     43  35  73 W6        30.15S
RED WING       CLEAR     45  43  93 N3        30.21S
REDWOOD FALLS  CLEAR     49  40  71 W3        30.23R
MANKATO        CLEAR     48  39  71 CALM      30.23S
WORTHINGTON    CLEAR     43  39  87 CALM      30.25S
FAIRMONT       CLEAR     45  37  76 CALM      30.24S
$$

...SOUTHWEST WISCONSIN...


CITY           SKY/WX    TMP DP  RH WIND       PRES   REMARKS
LA CROSSE      CLEAR     49  46  90 CALM      30.22R
PRAIRIE DU CHI CLEAR     46  44  93 CALM      30.22R
BOSCOBEL       PTCLDY    45  43  93 CALM      30.22R FOG
LONE ROCK      PTCLDY    49  44  83 CALM      30.21R HAZE
PLATTEVILLE    CLEAR     45  43  93 CALM      30.21S
FORT MC COY    CLEAR     40  40  98 CALM      30.22R
CAMP DOUGLAS   CLEAR     43  43 100 W3        30.19R
VIROQUA        FAIR      46  46 100 NW5       30.21R
WIS DELLS      CLEAR     44  42  93 CALM      30.18R
$$

...ELSEWHERE IN WISCONSIN...


CITY           SKY/WX    TMP DP  RH WIND       PRES   REMARKS
MILWAUKEE      CLEAR     51  48  89 NW5       30.16S
MADISON        CLEAR     46  44  93 CALM      30.18S
GREEN BAY      CLEAR     46  45  96 W5        30.14R
EAU CLAIRE     CLEAR     43  39  86 CALM      30.20S
BLACK RVR FLS  FAIR      38  38 100 CALM      30.20S
MEDFORD        CLEAR     37  37  98 CALM      30.19R
WAUSAU         CLEAR     46  40  79 CALM      30.17R
WIS RAPIDS     CLEAR     46  41  82 NW5       30.20R
MARSHFIELD     CLEAR     43  39  86 NW5       30.18R
RICE LAKE      CLEAR     42  40  94 CALM      30.21S
$$

...NORTHEAST IOWA...


CITY           SKY/WX    TMP DP  RH WIND       PRES   REMARKS
WATERLOO       CLEAR     45  43  93 N5        30.22S
DUBUQUE        CLEAR     45  43  93 CALM      30.21S
DECORAH        CLEAR     48  45  87 CALM      30.22R
MASON CITY     CLEAR     43  40  89 CALM      30.25R
CHARLES CITY   CLEAR     45  43  93 N5        30.24R
OELWEIN        PTCLDY    52  46  82 N5        30.23S
$$

...ELSEWHERE IN IOWA...


CITY           SKY/WX    TMP DP  RH WIND       PRES   REMARKS
DES MOINES     PTCLDY    53  46  77 N6        30.24S
IOWA CITY      CLEAR     51  47  86 CALM      30.23R
FORT DODGE     CLEAR     45  43  93 CALM      30.25S
MARSHALLTOWN   CLEAR     45  44  97 W3        30.23R
CEDAR RAPIDS   CLEAR     46  45  96 CALM      30.21S
$$

...NORTHERN ILLINOIS...


CITY           SKY/WX    TMP DP  RH WIND       PRES   REMARKS
CHICAGO-OHARE  PTCLDY    54  48  80 NW8       30.16R
DUPAGE         MOCLDY    52  50  93 N5        30.16R
CHICAGO-MIDWAY MOCLDY    57  51  80 N9        30.15R
MOLINE         CLEAR     52  48  86 N3        30.20S
ROCKFORD       CLEAR     48  45  89 CALM      30.20R
STERLING       CLEAR     48  45  87 N5        30.20R
PEORIA         CLOUDY    57  53  86 N8        30.18R
$$

NOTE: "FAIR" INDICATES FEW OR NO CLOUDS BELOW 12,000 FEET WITH NO
SIGNIFICANT WEATHER AND/OR OBSTRUCTIONS TO VISIBILITY. WIND
SPEEDS ARE IN MILES-PER-HOUR.



USA.gov is the U.S. government's official web portal to all federal, state and local government web resources and services.